Powrót do katalogu

STARLINK-37514

AktywnyŁącznośćSSO
NORAD 68899·PAYLOAD·🇺🇸 United States

Wystrzelony Apr 30, 2026 z Vandenberg Space Force Base

Loading…

Następne Przeloty (najbliższe 24 godziny)

TLE

ŚwieżeSource: CelesTrak SupGP

Epoka: Sep 15, 2026, 04:04 UTC

1 68899C 26097E   26258.16993056 -.00053929  00000+0 -16742-2 0  2585
2 68899  97.2849  92.3355 0001761  90.7508 193.6364 15.33463588    11

Śledź STARLINK-37514 w czasie rzeczywistym z AllMySat

Download on the App Store